User: anonymous   Login
Location: Unspecified
(0.0000°N, 0.0000°E)
Time: 00:14:40
(UTC+02:00)
Language:

ADEOS II - Orbit

View from above orbital plane
View from above orbital plane
View from above satellite
View from above satellite

Ground track
Ground track

The orbit data is extracted from the following two-line orbital elements,

1 27597U 02056A   17114.91366387 +.00000075 +00000-0 +47690-4 0  9992
2 27597 098.3645 086.7521 0002091 103.9627 256.1787 14.27281175747828
Epoch (UTC): 24 April 2017 21:55:40
Eccentricity: 0.0002091
inclination: 98.3645°
perigee height: 799 km
apogee height: 802 km
right ascension of ascending node: 86.7521°
argument of perigee: 103.9627°
revolutions per day: 14.27281175
mean anomaly at epoch: 256.1787°
orbit number at epoch: 74782

The dashed part of the orbit path shows where the satellite is in the earth's shadow,  

DLR